Simultaneous Nadir Overpasses (SNOs) Predictions

Prediction of SNOs between AQUA and METOP-A Satellite Orbit:

Table of predicted SNOs for the next 14.0 days since TLE Epoch: 2/13/2021
Index Date (AQUA) Time (AQUA) Lat,Lon (AQUA) SZA (AQUA ) Date (METOP-A) Time (METOP-A) Lat,Lon (METOP-A) SZA (METOP-A ) Distance(km) Time Diff (sec)
1 02/15/2021 17:47:52 -77.04, 78.28 89.98 02/15/2021 17:47:29 -77.05, 78.15 89.96 3.37 23
2 02/15/2021 18:37:20 77.10,-114.29 90.08 02/15/2021 18:38:08 77.09,-114.34 90.06 1.47 48
3 02/18/2021 13:22:08 -77.06, 144.65 90.95 02/18/2021 13:21:51 -77.06, 144.53 90.94 3.12 17
4 02/18/2021 14:11:36 77.12, -47.93 89.11 02/18/2021 14:12:30 77.10, -47.97 89.08 2.38 54
5 02/21/2021 08:06:47 76.58, 45.17 87.48 02/21/2021 08:05:43 76.54, 41.59 87.72 92.67 64
6 02/21/2021 08:56:24 -77.09,-149.00 91.93 02/21/2021 08:56:12 -77.11,-148.92 91.91 3.06 12
7 02/21/2021 09:45:51 77.14, 18.42 88.13 02/21/2021 09:46:50 77.15, 18.58 88.11 4.07 59
8 02/24/2021 03:41:08 76.90, 110.50 86.82 02/24/2021 03:39:58 76.82, 108.95 86.88 40.15 70
9 02/24/2021 04:30:39 -77.12, -82.68 92.93 02/24/2021 04:30:33 -77.11, -82.56 92.94 2.83 6
10 02/24/2021 05:20:06 77.13, 84.92 87.08 02/24/2021 05:21:12 77.15, 84.94 87.08 2.93 66
11 02/26/2021 23:15:27 77.07, 176.29 85.98 02/26/2021 23:14:14 77.09, 176.35 86.01 2.08 73
12 02/27/2021 00:04:54 -77.10, -16.19 94.00 02/27/2021 00:04:55 -77.12, -16.21 93.99 1.28 1



Historial Predications of SNOs between AQUA and METOP-A
